| time (UTC) | temp F | wind direction | speed knots | gust knots | rain 1hr in | rain 24hr in | rain mn in | humidity % | barometer mb |
| 20260502180459 | 46 | 293 | 6.1 | 7.0 | 0.00 | 0.00 | 0.00 | 41 | 1017.4 |
| 20260502170418 | 45 | 176 | 0.0 | 2.6 | 0.00 | 0.00 | 0.00 | 42 | 1017.4 |
| 20260502163901 | 44 | 322 | 2.6 | 6.1 | 0.00 | 0.00 | 0.00 | 45 | 1017.9 |
| 20260502163358 | 45 | 290 | 4.3 | 6.1 | 0.00 | 0.00 | 0.00 | 45 | 1017.7 |
| 20260502162856 | 44 | 329 | 4.3 | 6.1 | 0.00 | 0.00 | 0.00 | 44 | 1017.8 |
| 20260502162352 | 46 | 307 | 7.0 | 7.8 | 0.00 | 0.00 | 0.00 | 42 | 1017.8 |
| 20260502161849 | 44 | 306 | 0.9 | 4.3 | 0.00 | 0.00 | 0.00 | 44 | 1017.7 |
| 20260502161345 | 44 | 332 | 5.2 | 7.0 | 0.00 | 0.00 | 0.00 | 45 | 1017.8 |
| 20260502160843 | 44 | 291 | 2.6 | 6.1 | 0.00 | 0.00 | 0.00 | 43 | 1017.9 |
| 20260502160341 | 44 | 349 | 1.7 | 4.3 | 0.00 | 0.00 | 0.00 | 46 | 1018.0 |
| 20260502152316 | 43 | 274 | 2.6 | 4.3 | 0.00 | 0.00 | 0.00 | 47 | 1017.6 |
| 20260502151814 | 43 | 335 | 3.5 | 4.3 | 0.00 | 0.00 | 0.00 | 47 | 1017.8 |
| 20260502151310 | 44 | 12 | 4.3 | 8.7 | 0.00 | 0.00 | 0.00 | 48 | 1017.9 |
| 20260502150808 | 43 | 0 | 4.3 | 7.8 | 0.00 | 0.00 | 0.00 | 47 | 1017.6 |
| 20260502150304 | 42 | 330 | 5.2 | 8.7 | 0.00 | 0.00 | 0.00 | 45 | 1017.6 |
| 20260502130653 | 41 | 54 | 1.7 | 4.3 | 0.00 | 0.00 | 0.00 | 67 | 1017.7 |
| 20260502130151 | 40 | 293 | 1.7 | 6.1 | 0.00 | 0.00 | 0.00 | 67 | 1018.0 |
| 20260502123636 | 40 | 351 | 2.6 | 4.3 | 0.00 | 0.00 | 0.00 | 69 | 1017.9 |
| 20260502123133 | 40 | 339 | 3.5 | 6.1 | 0.00 | 0.00 | 0.00 | 70 | 1018.0 |
| 20260502122629 | 39 | 30 | 1.7 | 4.3 | 0.00 | 0.00 | 0.00 | 70 | 1017.9 |
| 20260502122126 | 39 | 301 | 2.6 | 4.3 | 0.00 | 0.00 | 0.00 | 71 | 1018.0 |
| 20260502121624 | 38 | 31 | 1.7 | 4.3 | 0.00 | 0.00 | 0.00 | 71 | 1018.1 |
| 20260502121121 | 38 | 334 | 2.6 | 6.1 | 0.00 | 0.00 | 0.00 | 71 | 1018.1 |
| 20260502120618 | 38 | 27 | 1.7 | 4.3 | 0.00 | 0.00 | 0.00 | 72 | 1017.8 |
| 20260502120115 | 38 | 330 | 0.9 | 1.7 | 0.00 | 0.00 | 0.00 | 73 | 1018.1 |
| 20260502115613 | 37 | 0 | 3.5 | 6.1 | 0.00 | 0.00 | 0.00 | 73 | 1017.8 |
| 20260502115108 | 37 | 315 | 1.7 | 4.3 | 0.00 | 0.00 | 0.00 | 75 | 1017.8 |
| 20260502114604 | 37 | 313 | 1.7 | 5.2 | 0.00 | 0.00 | 0.00 | 76 | 1017.6 |
| 20260502114102 | 36 | 326 | 1.7 | 1.7 | 0.00 | 0.00 | 0.00 | 80 | 1017.6 |
| 20260502113559 | 35 | 345 | 0.9 | 2.6 | 0.00 | 0.00 | 0.00 | 84 | 1017.7 |
| 20260502113058 | 35 | 322 | 0.9 | 1.7 | 0.00 | 0.00 | 0.00 | 87 | 1017.6 |
| 20260502112555 | 34 | 324 | 1.7 | 2.6 | 0.00 | 0.00 | 0.00 | 89 | 1017.5 |
| 20260502112052 | 34 | 326 | 0.0 | 0.9 | 0.00 | 0.00 | 0.00 | 90 | 1017.5 |
| 20260502111550 | 33 | 334 | 0.9 | 2.6 | 0.00 | 0.00 | 0.00 | 91 | 1017.7 |
| 20260502111047 | 33 | 304 | 0.9 | 0.9 | 0.00 | 0.00 | 0.00 | 91 | 1017.4 |
| 20260502110544 | 32 | 265 | 0.0 | 0.9 | 0.00 | 0.00 | 0.00 | 91 | 1017.2 |
| 20260502110042 | 32 | 225 | 0.0 | 0.9 | 0.00 | 0.00 | 0.00 | 91 | 1017.5 |
| 20260502105539 | 32 | 224 | 0.0 | 0.0 | 0.00 | 0.00 | 0.00 | 90 | 1017.5 |
| 20260502105037 | 32 | 224 | 0.0 | 0.9 | 0.00 | 0.00 | 0.00 | 90 | 1017.6 |
| 20260502104533 | 32 | 70 | 0.0 | 0.0 | 0.00 | 0.00 | 0.00 | 90 | 1017.7 |
| 20260502104031 | 32 | 98 | 0.0 | 0.0 | 0.00 | 0.00 | 0.00 | 90 | 1017.6 |
| 20260502103529 | 32 | 98 | 0.9 | 0.9 | 0.00 | 0.00 | 0.00 | 90 | 1017.4 |
| 20260502103026 | 33 | 99 | 0.0 | 0.0 | 0.00 | 0.00 | 0.00 | 89 | 1017.6 |
| 20260502102522 | 33 | 99 | 0.0 | 0.0 | 0.00 | 0.00 | 0.00 | 89 | 1017.5 |
| 20260502102020 | 33 | 99 | 0.0 | 0.0 | 0.00 | 0.00 | 0.00 | 89 | 1017.4 |
| 20260502101517 | 34 | 99 | 0.0 | 0.0 | 0.00 | 0.00 | 0.00 | 89 | 1017.0 |
| 20260502101016 | 34 | 99 | 0.0 | 0.0 | 0.00 | 0.00 | 0.00 | 89 | 1017.3 |
| 20260502100514 | 34 | 99 | 0.0 | 0.0 | 0.00 | 0.00 | 0.00 | 89 | 1017.4 |
| 20260502091448 | 35 | 99 | 0.0 | 0.0 | 0.00 | 0.00 | 0.00 | 86 | 1017.1 |
| 20260502090946 | 36 | 99 | 0.0 | 0.0 | 0.00 | 0.00 | 0.00 | 86 | 1017.0 |
| 20260502090442 | 36 | 99 | 0.0 | 0.0 | 0.00 | 0.00 | 0.00 | 86 | 1017.0 |
| 20260502071337 | 38 | 89 | 0.9 | 0.9 | 0.00 | 0.00 | 0.00 | 83 | 1016.7 |
| 20260502070835 | 38 | 92 | 0.9 | 1.7 | 0.00 | 0.00 | 0.00 | 83 | 1016.7 |
| 20260502070332 | 38 | 83 | 0.9 | 1.7 | 0.00 | 0.00 | 0.00 | 83 | 1016.8 |
| 20260502065831 | 38 | 101 | 0.0 | 0.9 | 0.00 | 0.00 | 0.00 | 83 | 1016.5 |
| 20260502065329 | 38 | 103 | 0.0 | 0.0 | 0.00 | 0.00 | 0.00 | 82 | 1016.8 |
| 20260502064827 | 38 | 119 | 0.0 | 0.0 | 0.00 | 0.00 | 0.00 | 82 | 1016.6 |
| 20260502064325 | 38 | 120 | 0.0 | 0.0 | 0.00 | 0.00 | 0.00 | 82 | 1017.0 |
| 20260502063822 | 38 | 121 | 0.0 | 0.0 | 0.00 | 0.00 | 0.00 | 82 | 1016.9 |
| 20260502063319 | 38 | 120 | 0.0 | 0.0 | 0.00 | 0.00 | 0.00 | 81 | 1017.0 |
| 20260502062816 | 38 | 121 | 0.0 | 0.0 | 0.00 | 0.00 | 0.00 | 81 | 1017.1 |
| 20260502062314 | 38 | 121 | 0.0 | 0.0 | 0.00 | 0.00 | 0.00 | 81 | 1016.9 |
| 20260502061813 | 38 | 122 | 0.0 | 0.0 | 0.00 | 0.00 | 0.00 | 80 | 1017.1 |
| 20260502061310 | 38 | 124 | 0.9 | 0.9 | 0.00 | 0.00 | 0.00 | 79 | 1017.2 |
| 20260502060805 | 38 | 142 | 0.9 | 0.9 | 0.00 | 0.00 | 0.00 | 79 | 1017.0 |
| 20260502060301 | 38 | 178 | 0.9 | 0.9 | 0.00 | 0.00 | 0.00 | 79 | 1017.0 |
| 20260502055759 | 38 | 175 | 0.0 | 0.9 | 0.00 | 0.00 | 0.00 | 79 | 1017.2 |
| 20260502055256 | 39 | 85 | 0.0 | 0.0 | 0.00 | 0.00 | 0.00 | 78 | 1017.3 |
| 20260502054755 | 39 | 83 | 0.0 | 0.9 | 0.00 | 0.00 | 0.00 | 78 | 1017.3 |
| 20260502054253 | 39 | 84 | 0.0 | 0.0 | 0.00 | 0.00 | 0.00 | 78 | 1017.2 |
| 20260502053750 | 39 | 85 | 0.0 | 0.0 | 0.00 | 0.00 | 0.00 | 77 | 1017.2 |
| 20260502053247 | 39 | 93 | 0.0 | 0.9 | 0.00 | 0.00 | 0.00 | 77 | 1017.1 |
| 20260502052745 | 39 | 95 | 0.0 | 0.0 | 0.00 | 0.00 | 0.00 | 77 | 1017.1 |
| 20260502052243 | 39 | 94 | 0.0 | 0.9 | 0.00 | 0.00 | 0.00 | 76 | 1017.2 |
| 20260502051740 | 39 | 115 | 0.9 | 1.7 | 0.00 | 0.00 | 0.00 | 76 | 1017.1 |
| 20260502051239 | 39 | 74 | 0.9 | 0.9 | 0.00 | 0.00 | 0.00 | 76 | 1017.0 |
| 20260502050735 | 39 | 67 | 0.0 | 0.9 | 0.00 | 0.00 | 0.00 | 75 | 1017.3 |
| 20260502050231 | 39 | 61 | 0.0 | 0.9 | 0.00 | 0.00 | 0.00 | 75 | 1017.2 |
| 20260502045728 | 39 | 55 | 0.9 | 2.6 | 0.00 | 0.00 | 0.00 | 74 | 1017.3 |
| 20260502045225 | 39 | 54 | 0.9 | 1.7 | 0.00 | 0.00 | 0.00 | 74 | 1016.9 |
| 20260502044722 | 39 | 12 | 0.9 | 2.6 | 0.00 | 0.00 | 0.00 | 74 | 1016.9 |
| 20260502044218 | 39 | 26 | 1.7 | 1.7 | 0.00 | 0.00 | 0.00 | 74 | 1017.0 |
| 20260502043716 | 39 | 94 | 0.9 | 1.7 | 0.00 | 0.00 | 0.00 | 73 | 1016.9 |
| 20260502043213 | 40 | 88 | 1.7 | 2.6 | 0.00 | 0.00 | 0.00 | 73 | 1016.9 |
| 20260502042712 | 40 | 79 | 0.0 | 4.3 | 0.00 | 0.00 | 0.00 | 72 | 1016.7 |
| 20260502042210 | 40 | 52 | 1.7 | 2.6 | 0.00 | 0.00 | 0.00 | 71 | 1016.7 |
| 20260502041708 | 40 | 36 | 0.9 | 6.1 | 0.00 | 0.00 | 0.00 | 71 | 1016.8 |
| 20260502041204 | 40 | 111 | 1.7 | 2.6 | 0.00 | 0.00 | 0.00 | 71 | 1016.8 |
| 20260502040701 | 40 | 101 | 1.7 | 4.3 | 0.00 | 0.00 | 0.00 | 70 | 1016.6 |
| 20260502040158 | 41 | 33 | 3.5 | 5.2 | 0.00 | 0.00 | 0.00 | 69 | 1016.7 |
| 20260502035654 | 41 | 53 | 5.2 | 8.7 | 0.00 | 0.00 | 0.00 | 68 | 1016.6 |
| 20260502035151 | 42 | 43 | 0.9 | 2.6 | 0.00 | 0.00 | 0.00 | 67 | 1016.4 |
| 20260502034649 | 42 | 332 | 2.6 | 4.3 | 0.00 | 0.00 | 0.00 | 66 | 1016.3 |
| 20260502034147 | 42 | 324 | 2.6 | 4.3 | 0.00 | 0.00 | 0.00 | 65 | 1016.5 |
| 20260502033645 | 42 | 354 | 0.9 | 1.7 | 0.00 | 0.00 | 0.00 | 66 | 1016.4 |
| 20260502033142 | 42 | 354 | 0.9 | 1.7 | 0.00 | 0.00 | 0.00 | 66 | 1015.9 |
| 20260502032638 | 42 | 335 | 0.9 | 0.9 | 0.00 | 0.00 | 0.00 | 65 | 1016.3 |
| 20260502032135 | 42 | 343 | 1.7 | 4.3 | 0.00 | 0.00 | 0.00 | 65 | 1016.3 |
| 20260502031633 | 42 | 306 | 0.9 | 2.6 | 0.00 | 0.00 | 0.00 | 66 | 1016.0 |
| 20260502031130 | 42 | 297 | 0.9 | 1.7 | 0.00 | 0.00 | 0.00 | 66 | 1016.2 |
| 20260502030629 | 42 | 303 | 0.9 | 0.9 | 0.00 | 0.00 | 0.00 | 66 | 1016.0 |
| 20260502030127 | 42 | 326 | 0.9 | 1.7 | 0.00 | 0.00 | 0.00 | 66 | 1016.0 |
| 20260502025624 | 42 | 349 | 0.9 | 1.7 | 0.00 | 0.00 | 0.00 | 66 | 1016.2 |
| 20260502025122 | 42 | 1 | 1.7 | 2.6 | 0.00 | 0.00 | 0.00 | 65 | 1015.9 |
| 20260502024619 | 43 | 340 | 0.9 | 1.7 | 0.00 | 0.00 | 0.00 | 65 | 1016.0 |
| 20260502024117 | 43 | 343 | 2.6 | 5.2 | 0.00 | 0.00 | 0.00 | 65 | 1016.0 |
| 20260502023615 | 43 | 347 | 0.9 | 2.6 | 0.00 | 0.00 | 0.00 | 65 | 1015.9 |
| 20260502023112 | 43 | 316 | 0.9 | 0.9 | 0.00 | 0.00 | 0.00 | 65 | 1016.2 |
| 20260502022609 | 43 | 320 | 1.7 | 4.3 | 0.00 | 0.00 | 0.00 | 65 | 1016.2 |
| 20260502022106 | 43 | 287 | 0.9 | 4.3 | 0.00 | 0.00 | 0.00 | 64 | 1016.0 |
| 20260502021603 | 43 | 322 | 2.6 | 4.3 | 0.00 | 0.00 | 0.00 | 64 | 1016.0 |
| 20260502021100 | 43 | 293 | 2.6 | 5.2 | 0.00 | 0.00 | 0.00 | 63 | 1016.0 |
| 20260502020557 | 43 | 321 | 1.7 | 2.6 | 0.00 | 0.00 | 0.00 | 63 | 1015.9 |
| 20260502020054 | 43 | 335 | 2.6 | 2.6 | 0.00 | 0.00 | 0.00 | 62 | 1015.7 |
| 20260502015552 | 43 | 333 | 1.7 | 5.2 | 0.00 | 0.00 | 0.00 | 62 | 1015.5 |
| 20260502015048 | 43 | 241 | 1.7 | 5.2 | 0.00 | 0.00 | 0.00 | 62 | 1015.9 |
| 20260502014545 | 43 | 3 | 0.9 | 2.6 | 0.00 | 0.00 | 0.00 | 62 | 1015.7 |
| 20260502014042 | 43 | 324 | 2.6 | 2.6 | 0.00 | 0.00 | 0.00 | 63 | 1015.8 |
| 20260502013537 | 43 | 321 | 1.7 | 1.7 | 0.00 | 0.00 | 0.00 | 62 | 1015.6 |
| 20260502013034 | 43 | 301 | 0.9 | 0.9 | 0.00 | 0.00 | 0.00 | 63 | 1015.7 |
| 20260502012532 | 43 | 298 | 1.7 | 4.3 | 0.00 | 0.00 | 0.00 | 62 | 1015.4 |
| 20260502012029 | 43 | 305 | 3.5 | 5.2 | 0.00 | 0.00 | 0.00 | 62 | 1015.4 |
| 20260502011526 | 43 | 356 | 0.9 | 2.6 | 0.00 | 0.00 | 0.00 | 63 | 1015.5 |
| 20260502011022 | 43 | 313 | 0.9 | 1.7 | 0.00 | 0.00 | 0.00 | 64 | 1015.4 |
| 20260502010520 | 44 | 324 | 0.9 | 0.9 | 0.00 | 0.00 | 0.00 | 64 | 1015.3 |
| 20260502010016 | 44 | 312 | 0.9 | 1.7 | 0.00 | 0.00 | 0.00 | 63 | 1015.3 |
| 20260502005514 | 44 | 292 | 1.7 | 2.6 | 0.00 | 0.00 | 0.00 | 62 | 1015.2 |
| 20260502005011 | 44 | 305 | 1.7 | 1.7 | 0.00 | 0.00 | 0.00 | 62 | 1015.3 |
| 20260502004507 | 44 | 0 | 0.9 | 4.3 | 0.00 | 0.00 | 0.00 | 62 | 1015.1 |
| 20260502004004 | 44 | 324 | 1.7 | 4.3 | 0.00 | 0.00 | 0.00 | 63 | 1015.2 |
| 20260502003501 | 44 | 299 | 0.9 | 2.6 | 0.00 | 0.00 | 0.00 | 63 | 1015.2 |
| 20260502002957 | 44 | 304 | 3.5 | 4.3 | 0.00 | 0.00 | 0.00 | 63 | 1015.2 |
| 20260502002455 | 44 | 321 | 3.5 | 4.3 | 0.00 | 0.00 | 0.00 | 62 | 1015.2 |
| 20260502001952 | 44 | 304 | 0.9 | 2.6 | 0.00 | 0.00 | 0.00 | 62 | 1015.1 |
| 20260502001449 | 44 | 303 | 1.7 | 4.3 | 0.00 | 0.00 | 0.00 | 62 | 1015.1 |
| 20260502000947 | 44 | 302 | 1.7 | 5.2 | 0.00 | 0.00 | 0.00 | 63 | 1015.0 |
| 20260502000446 | 44 | 317 | 2.6 | 4.3 | 0.00 | 0.00 | 0.00 | 63 | 1014.9 |
| 20260501235941 | 44 | 317 | 1.7 | 2.6 | 0.00 | 0.00 | 0.00 | 63 | 1014.9 |
| 20260501235437 | 44 | 332 | 0.9 | 1.7 | 0.00 | 0.00 | 0.00 | 64 | 1014.9 |
| 20260501234932 | 44 | 342 | 1.7 | 2.6 | 0.00 | 0.00 | 0.00 | 63 | 1015.0 |
| 20260501234429 | 45 | 325 | 1.7 | 2.6 | 0.00 | 0.00 | 0.00 | 63 | 1014.7 |
| 20260501233928 | 44 | 277 | 0.9 | 1.7 | 0.00 | 0.00 | 0.00 | 62 | 1014.6 |
| 20260501233425 | 45 | 335 | 1.7 | 1.7 | 0.00 | 0.00 | 0.00 | 62 | 1014.6 |
| 20260501232920 | 45 | 9 | 2.6 | 4.3 | 0.00 | 0.00 | 0.00 | 62 | 1014.7 |
| 20260501232418 | 45 | 345 | 2.6 | 5.2 | 0.00 | 0.00 | 0.00 | 62 | 1014.6 |
| 20260501231915 | 45 | 4 | 1.7 | 5.2 | 0.00 | 0.00 | 0.00 | 62 | 1014.6 |
| 20260501231414 | 45 | 347 | 4.3 | 6.1 | 0.00 | 0.00 | 0.00 | 62 | 1014.6 |
| 20260501230911 | 45 | 357 | 0.9 | 1.7 | 0.00 | 0.00 | 0.00 | 62 | 1014.5 |
| 20260501230410 | 45 | 5 | 0.9 | 4.3 | 0.00 | 0.00 | 0.00 | 61 | 1014.6 |
| 20260501225907 | 45 | 351 | 6.1 | 8.7 | 0.00 | 0.00 | 0.00 | 60 | 1014.5 |
| 20260501225405 | 45 | 347 | 2.6 | 7.0 | 0.00 | 0.00 | 0.00 | 60 | 1014.7 |
| 20260501224900 | 46 | 333 | 5.2 | 7.0 | 0.00 | 0.00 | 0.00 | 58 | 1014.6 |
| 20260501224358 | 46 | 339 | 5.2 | 7.0 | 0.00 | 0.00 | 0.00 | 58 | 1014.4 |
| 20260501223854 | 46 | 284 | 3.5 | 9.6 | 0.00 | 0.00 | 0.00 | 58 | 1014.6 |
| 20260501223350 | 46 | 0 | 2.6 | 9.6 | 0.00 | 0.00 | 0.00 | 58 | 1014.6 |
| 20260501222846 | 46 | 348 | 4.3 | 7.8 | 0.00 | 0.00 | 0.00 | 59 | 1014.5 |
| 20260501222344 | 46 | 286 | 4.3 | 6.1 | 0.00 | 0.00 | 0.00 | 57 | 1014.6 |
| 20260501221840 | 46 | 345 | 2.6 | 2.6 | 0.00 | 0.00 | 0.00 | 56 | 1014.4 |
| 20260501221337 | 47 | 300 | 1.7 | 2.6 | 0.00 | 0.00 | 0.00 | 56 | 1014.4 |
| 20260501220836 | 47 | 314 | 2.6 | 4.3 | 0.00 | 0.00 | 0.00 | 55 | 1014.4 |
| 20260501220333 | 47 | 305 | 5.2 | 7.0 | 0.00 | 0.00 | 0.00 | 53 | 1014.2 |
| 20260501215829 | 47 | 301 | 3.5 | 7.0 | 0.00 | 0.00 | 0.00 | 53 | 1014.1 |
| 20260501215325 | 47 | 335 | 3.5 | 6.1 | 0.00 | 0.00 | 0.00 | 52 | 1014.1 |
| 20260501214821 | 47 | 295 | 4.3 | 6.1 | 0.00 | 0.00 | 0.00 | 53 | 1014.0 |
| 20260501214316 | 48 | 285 | 2.6 | 4.3 | 0.00 | 0.00 | 0.00 | 55 | 1014.1 |
| 20260501213813 | 48 | 335 | 2.6 | 6.1 | 0.00 | 0.00 | 0.00 | 54 | 1014.1 |
| 20260501213309 | 48 | 311 | 2.6 | 7.0 | 0.00 | 0.00 | 0.00 | 53 | 1013.9 |
| 20260501212805 | 48 | 289 | 2.6 | 5.2 | 0.00 | 0.00 | 0.00 | 54 | 1014.1 |
| 20260501212305 | 48 | 290 | 1.7 | 4.3 | 0.00 | 0.00 | 0.00 | 53 | 1014.2 |
| 20260501211759 | 48 | 308 | 3.5 | 6.1 | 0.00 | 0.00 | 0.00 | 53 | 1014.1 |
| 20260501211256 | 48 | 338 | 4.3 | 7.8 | 0.00 | 0.00 | 0.00 | 54 | 1013.7 |
| 20260501210753 | 48 | 331 | 5.2 | 6.1 | 0.00 | 0.00 | 0.00 | 54 | 1013.8 |
| 20260501210249 | 48 | 315 | 2.6 | 4.3 | 0.00 | 0.00 | 0.00 | 55 | 1013.8 |
| 20260501205746 | 47 | 321 | 1.7 | 6.1 | 0.00 | 0.00 | 0.00 | 55 | 1013.9 |
| 20260501205243 | 48 | 296 | 3.5 | 6.1 | 0.00 | 0.00 | 0.00 | 53 | 1013.7 |
| 20260501204740 | 48 | 322 | 1.7 | 5.2 | 0.00 | 0.00 | 0.00 | 52 | 1013.6 |
| 20260501204237 | 48 | 335 | 4.3 | 5.2 | 0.00 | 0.00 | 0.00 | 52 | 1013.7 |
| 20260501203733 | 48 | 306 | 2.6 | 4.3 | 0.00 | 0.00 | 0.00 | 52 | 1013.6 |
| 20260501203230 | 48 | 287 | 1.7 | 5.2 | 0.00 | 0.00 | 0.00 | 50 | 1013.7 |
| 20260501202727 | 48 | 156 | 0.9 | 5.2 | 0.00 | 0.00 | 0.00 | 50 | 1013.7 |
| 20260501202224 | 49 | 295 | 6.1 | 6.1 | 0.00 | 0.00 | 0.00 | 49 | 1013.7 |
| 20260501201721 | 49 | 22 | 2.6 | 6.1 | 0.00 | 0.00 | 0.00 | 50 | 1013.7 |
| 20260501201218 | 49 | 19 | 3.5 | 5.2 | 0.00 | 0.00 | 0.00 | 50 | 1013.6 |
| 20260501200714 | 48 | 268 | 1.7 | 6.1 | 0.00 | 0.00 | 0.00 | 51 | 1013.9 |
| 20260501200212 | 48 | 327 | 4.3 | 5.2 | 0.00 | 0.00 | 0.00 | 52 | 1013.8 |
| 20260501195709 | 48 | 335 | 3.5 | 6.1 | 0.00 | 0.00 | 0.00 | 52 | 1013.8 |
| 20260501195205 | 48 | 301 | 2.6 | 7.0 | 0.00 | 0.00 | 0.00 | 51 | 1013.6 |
| 20260501194701 | 49 | 46 | 3.5 | 5.2 | 0.00 | 0.00 | 0.00 | 49 | 1013.5 |
| 20260501194156 | 50 | 341 | 3.5 | 4.3 | 0.00 | 0.00 | 0.00 | 49 | 1013.6 |
| 20260501193654 | 49 | 5 | 0.9 | 1.7 | 0.00 | 0.00 | 0.00 | 47 | 1013.6 |
| 20260501193152 | 49 | 343 | 1.7 | 5.2 | 0.00 | 0.00 | 0.00 | 47 | 1013.4 |
| 20260501192649 | 50 | 298 | 1.7 | 5.2 | 0.00 | 0.00 | 0.00 | 48 | 1013.5 |
| 20260501192146 | 50 | 344 | 4.3 | 8.7 | 0.00 | 0.00 | 0.00 | 47 | 1013.5 |
| 20260501191644 | 51 | 287 | 1.7 | 5.2 | 0.00 | 0.00 | 0.00 | 47 | 1013.3 |
| 20260501191141 | 50 | 291 | 0.9 | 5.2 | 0.00 | 0.00 | 0.00 | 46 | 1013.3 |
| 20260501190637 | 49 | 292 | 2.6 | 5.2 | 0.00 | 0.00 | 0.00 | 48 | 1013.2 |
| 20260501190132 | 49 | 8 | 2.6 | 5.2 | 0.00 | 0.00 | 0.00 | 47 | 1013.5 |
| 20260501185628 | 49 | 303 | 1.7 | 6.1 | 0.00 | 0.00 | 0.00 | 48 | 1013.4 |
| 20260501185124 | 49 | 2 | 4.3 | 7.0 | 0.00 | 0.00 | 0.00 | 48 | 1013.6 |
| 20260501184621 | 50 | 342 | 4.3 | 7.8 | 0.00 | 0.00 | 0.00 | 47 | 1013.4 |
| 20260501184115 | 50 | 280 | 2.6 | 6.1 | 0.00 | 0.00 | 0.00 | 44 | 1013.2 |
| 20260501183612 | 50 | 15 | 2.6 | 5.2 | 0.00 | 0.00 | 0.00 | 46 | 1013.0 |
| 20260501183109 | 49 | 315 | 4.3 | 5.2 | 0.00 | 0.00 | 0.00 | 46 | 1013.2 |
| 20260501182605 | 49 | 349 | 3.5 | 6.1 | 0.00 | 0.00 | 0.00 | 47 | 1013.2 |
| 20260501182102 | 49 | 335 | 2.6 | 6.1 | 0.00 | 0.00 | 0.00 | 48 | 1013.2 |
| 20260501181600 | 48 | 271 | 1.7 | 4.3 | 0.00 | 0.00 | 0.00 | 51 | 1013.1 |
| 20260501181056 | 48 | 343 | 3.5 | 4.3 | 0.00 | 0.00 | 0.00 | 49 | 1013.2 |